PDT,Max TemperatureF,Mean TemperatureF,Min TemperatureF,Max Dew PointF,MeanDew PointF,Min DewpointF,Max Humidity, Mean Humidity, Min Humidity, Max Sea Level PressureIn, Mean Sea Level PressureIn, Min Sea Level PressureIn, Max VisibilityMiles, Mean VisibilityMiles, Min VisibilityMiles, Max Wind SpeedMPH, Mean Wind SpeedMPH, Max Gust SpeedMPH,PrecipitationIn, CloudCover, Events, WindDirDegrees
2013-9-1,94,78,62,48,45,42,52,35,17,29.83,29.78,29.72,10,10,10,13,4,16,T,0,,78
2013-9-2,83,77,70,59,52,45,57,44,31,29.87,29.81,29.72,10,10,10,15,4,18,0.01,2,Rain,233
2013-9-3,86,77,68,64,59,56,73,55,37,30.00,29.91,29.84,10,10,10,9,6,,0.06,2,Rain,106
2013-9-4,92,78,63,61,58,55,84,58,32,29.99,29.91,29.83,10,10,10,9,3,10,0.00,0,,254
2013-9-5,84,74,64,64,61,55,93,71,48,30.03,29.91,29.78,10,10,7,23,6,32,0.32,3,Rain-Thunderstorm,118
2013-9-6,77,70,63,56,52,48,78,61,43,30.11,30.04,29.93,10,10,10,17,4,22,T,6,,3
2013-9-7,81,69,56,54,52,49,86,60,33,30.10,30.03,29.94,10,10,10,13,4,16,0.00,1,,275
2013-9-8,79,70,60,53,50,47,72,52,32,30.04,30.00,29.96,10,10,10,17,6,24,0.00,3,,269
2013-9-9,89,73,57,51,49,46,72,48,24,30.02,29.95,29.88,10,10,10,9,3,12,0.00,1,,104
2013-9-10,93,76,58,52,47,40,72,44,16,30.01,29.94,29.87,10,10,10,9,3,14,0.00,0,,154
2013-9-11,99,80,60,51,45,40,64,39,13,30.02,29.94,29.86,10,10,10,9,3,13,0.00,0,,126
2013-9-12,97,80,63,49,46,41,45,31,16,29.95,29.87,29.80,10,10,10,13,4,18,0.00,0,,246
2013-9-13,96,81,66,52,49,46,52,36,19,29.83,29.76,29.69,10,10,10,13,5,17,0.00,0,,281
2013-9-14,99,82,65,53,47,41,56,35,14,29.85,29.77,29.70,10,10,10,16,5,22,0.00,0,,102
2013-9-15,98,83,67,57,48,43,54,36,17,29.76,29.68,29.54,10,10,6,21,7,28,0.03,1,Thunderstorm,122
2013-9-16,81,71,61,61,53,47,84,57,30,29.87,29.81,29.74,10,10,7,18,5,23,T,2,Rain-Thunderstorm,290
2013-9-17,71,63,54,54,50,46,86,65,44,29.82,29.75,29.66,10,9,2,28,6,36,0.31,5,Rain-Thunderstorm,249
2013-9-18,69,59,49,53,45,39,86,62,37,30.09,29.97,29.81,10,10,9,13,4,17,0.04,6,Rain,176
2013-9-19,77,62,47,47,42,37,93,59,24,30.15,30.04,29.90,10,10,10,10,6,16,0.00,0,,102
2013-9-20,89,70,50,43,39,33,71,43,14,29.89,29.69,29.49,10,10,9,15,7,18,T,0,,99
2013-9-21,71,64,56,47,44,37,62,47,31,29.72,29.65,29.56,10,10,10,18,6,23,T,3,Rain,178
2013-9-22,71,63,54,52,46,40,86,60,33,29.76,29.71,29.66,10,10,9,18,4,25,0.09,7,Rain,345
2013-9-23,69,60,51,52,45,38,93,62,31,29.94,29.90,29.79,10,10,10,10,4,12,0.01,5,,130
2013-9-24,61,56,50,52,50,46,100,80,60,29.92,29.85,29.78,10,10,7,12,2,13,0.36,8,Rain,148
2013-9-25,60,53,46,49,45,42,93,73,53,29.85,29.80,29.78,10,10,6,15,4,20,0.19,7,Rain,255
2013-9-26,63,55,47,49,43,36,93,65,36,30.04,29.96,29.86,10,10,10,14,4,17,T,6,,259
2013-9-27,61,53,45,45,43,38,89,66,42,30.07,30.02,29.94,10,10,10,17,5,21,0.03,7,Rain,152
2013-9-28,61,57,52,52,49,44,83,74,64,29.93,29.78,29.50,10,10,10,29,8,37,0.07,7,Rain,130
2013-9-29,60,56,51,49,43,40,77,62,47,29.73,29.67,29.51,10,10,10,25,11,36,0.01,6,Rain,199
2013-9-30,64,57,49,47,39,34,77,57,36,29.96,29.79,29.50,10,10,10,29,11,36,0.04,5,Rain,212